Temp
43 37 31 30 32 34 33 32 32 36 36 35 32 34 42 43 38 39 38 39 40 40 43 43 42 41 39 38 38 38 37 36 35 33 32 32 31 33 34 36 36 35 33 33
39 33 35 38 37 35 34 33 32 36 35 32 31 35 38 38 38 36 36 37 39 39 39 39 39 38 38 38 37 37 36 34 33 33 32 31 31 32 33 33 33 33 32 31
38 35 39 37 35 36 33 33 30 32 34 30 28 36 39 39 38 38 36 35 35 37 38 37 38 36 36 35 35 35 33 32 32 32 32 31 31 32 31 30 30 30 30 29
36 37 36 36 35 34 34 34 33 32 28 26 29 29 38 38 40 39 39 36 33 33 37 38 37 35 34 31 32 32 32 32 32 31 29 28 27 25 26 26 27 27 28 27
35 34 36 35 36 35 36 33 31 30 24 24 28 23 38 36 42 41 40 38 35 32 33 34 33 33 32 30 29 29 30 30 29 29 29 27 26 26 25 24 25 26 26 27
34 34 33 33 35 35 35 30 30 26 22 22 17 23 35 39 41 39 37 36 36 33 31 31 31 31 29 29 28 28 29 28 29 29 28 27 24 24 23 23 22 22 23 23
36 34 33 34 34 34 34 29 24 26 22 27 8 20 38 40 40 39 40 38 36 33 31 30 29 28 28 28 28 30 29 28 28 28 27 26 25 24 22 22 21 20 20 20
25 31 32 34 33 32 31 27 25 19 20 24 11 22 40 39 38 38 36 36 34 32 31 30 29 27 28 29 28 29 29 28 27 26 25 25 25 24 23 21 20 19 18 19
27 34 31 33 33 32 32 25 28 15 2 12 23 31 40 37 36 36 36 34 33 32 30 29 28 27 27 28 27 28 27 27 26 25 25 24 24 22 20 20 19 19 19 19
30 27 29 32 32 31 31 32 26 21 18 15 23 20 32 37 36 34 37 34 34 32 29 29 28 28 28 28 27 27 27 25 25 25 24 24 22 21 20 19 18 18 17 17
30 26 32 32 25 26 26 24 24 24 24 18 12 27 32 34 31 32 32 34 31 29 30 29 28 29 28 27 26 26 25 25 25 24 23 22 21 20 19 18 17 16 16 15
32 31 22 32 29 31 31 30 32 26 23 16 17 23 33 34 27 20 30 32 31 29 30 28 28 28 27 26 24 25 24 24 23 22 21 20 19 18 16 15 15 15 14 14
34 25 23 33 29 30 26 31 28 22 25 18 18 32 26 23 26 27 28 32 33 29 26 26 27 26 26 23 22 23 23 23 22 20 18 17 16 14 13 13 13 13 12 11
38 31 29 29 34 28 24 29 28 26 16 22 28 37 44 43 39 38 36 36 34 32 28 25 24 23 24 23 21 21 21 20 18 16 15 13 13 12 11 11 10 10 10 9
32 22 23 26 29 25 30 27 25 22 27 25 38 31 41 42 41 40 37 35 33 31 27 25 23 23 23 21 20 19 16 15 14 12 9 9 10 10 9 8 8 8 8 8
30 25 16 20 27 27 24 29 29 28 29 24 30 30 40 40 38 35 36 35 33 31 28 25 24 23 22 21 17 19 11 6 6 3 4 5 6 6 5 5 5 6 6 6
23 19 19 23 19 23 34 32 27 24 23 25 25 42 29 39 37 35 36 34 34 33 28 24 23 22 20 17 14 9 5 -2 -5 -3 1 2 1 2 2 2 3 3 3 4
17 16 13 19 19 19 39 36 35 34 38 29 33 38 41 39 35 35 35 35 34 30 26 24 22 19 16 10 6 2 -1 -4 -6 -3 -2 -1 -2 -3 -1 1 1 0 2 2
27 23 22 16 8 27 40 34 34 34 38 46 39 41 42 36 35 40 35 33 31 27 25 23 21 17 12 9 4 2 -1 -4 -2 -0 -3 -2 -5 -3 -2 -1 -2 -0 2 1
27 28 28 15 20 30 41 33 32 33 33 43 42 43 40 36 37 43 31 28 26 25 24 22 21 20 18 16 16 13 4 1 5 4 -0 -0 -1 -4 -3 -3 -0 2 1 2
23 24 22 25 23 29 39 38 36 32 43 41 41 42 39 36 40 34 27 25 25 23 22 23 21 18 16 16 15 12 10 6 8 8 6 3 2 0 -1 -1 -0 -0 0 2
28 23 21 24 23 24 36 34 39 52 42 41 39 40 38 38 34 29 25 23 22 20 22 21 18 16 15 14 13 10 8 8 6 4 3 3 2 4 6 3 2 3 3 2
34 39 34 35 33 41 38 48 49 42 41 43 42 42 38 36 34 27 24 22 21 20 22 20 17 14 12 12 11 8 7 5 2 -1 -0 1 2 5 5 3 3 2 3 3
35 40 36 37 49 48 52 54 51 48 44 45 41 40 37 37 34 26 23 21 20 19 18 16 13 11 9 7 9 4 2 0 -6 -3 -1 1 2 1 2 4 4 3 4 3
42 38 38 42 47 49 49 52 54 50 43 37 37 38 38 36 31 26 23 21 20 18 16 14 12 10 8 6 3 -1 -0 -4 -3 0 -0 1 2 0 1 3 2 6 7 10
40 46 40 42 53 53 53 45 43 40 39 39 38 35 34 34 29 25 23 22 20 17 14 13 11 9 7 5 3 0 -1 -2 -5 -1 0 -0 -0 -0 1 0 1 9 13 15
MSLP
1019.47 1020.66 1022.16 1022.89 1022.94 1022.77 1022.67 1022.71 1022.75 1021.86 1022.07 1021.78 1020.34 1018.98 1016.35 1015.76 1015.89 1016.18 1016.48 1016.58 1016.35 1016.41 1016.39 1016.63 1017.20 1017.98 1018.79 1019.24 1019.48 1019.98 1020.54 1021.00 1021.15 1021.38 1021.80 1021.68 1021.78 1021.66 1021.41 1021.30 1021.34 1021.31 1021.35 1021.18
1020.88 1022.37 1023.09 1023.19 1023.11 1022.93 1023.06 1023.16 1023.00 1022.16 1022.35 1022.70 1020.82 1018.10 1016.05 1015.43 1015.42 1015.80 1016.15 1016.49 1016.62 1016.58 1016.79 1017.29 1017.86 1018.43 1018.83 1019.41 1020.07 1020.54 1020.99 1021.42 1021.57 1021.73 1022.00 1022.03 1021.86 1021.55 1021.54 1021.59 1021.58 1021.48 1021.31 1021.08
1022.39 1023.39 1023.30 1023.31 1023.30 1023.35 1023.26 1023.59 1023.92 1024.29 1023.09 1022.73 1021.79 1018.36 1015.94 1014.95 1014.98 1015.24 1015.89 1016.48 1016.78 1017.01 1017.18 1017.70 1018.09 1018.52 1019.33 1020.10 1020.50 1020.80 1021.26 1021.63 1022.02 1022.19 1022.27 1022.14 1021.96 1021.90 1021.75 1021.76 1021.60 1021.47 1021.27 1021.18
1023.48 1023.58 1023.56 1023.46 1023.74 1024.15 1024.02 1023.96 1024.38 1024.52 1024.65 1024.23 1023.08 1020.51 1016.73 1015.19 1014.89 1015.05 1015.56 1016.24 1016.84 1017.22 1017.39 1017.87 1018.74 1019.63 1019.96 1020.49 1020.89 1021.37 1021.67 1021.94 1022.26 1022.45 1022.53 1022.59 1022.66 1022.50 1022.34 1022.29 1021.90 1021.47 1021.22 1021.00
1024.08 1024.05 1024.02 1024.17 1024.26 1024.40 1024.24 1024.38 1024.77 1025.03 1025.54 1025.48 1024.33 1022.81 1016.81 1015.58 1014.71 1014.58 1015.14 1015.91 1016.81 1017.77 1018.42 1019.11 1019.56 1019.94 1020.67 1020.95 1021.35 1021.74 1022.13 1022.47 1022.63 1022.79 1023.00 1023.08 1022.98 1022.88 1022.52 1022.30 1021.95 1021.69 1021.40 1021.09
1024.49 1024.78 1024.91 1024.80 1024.61 1024.64 1024.59 1024.81 1025.15 1025.68 1026.10 1026.26 1025.38 1023.74 1017.88 1015.76 1014.56 1014.71 1015.13 1016.30 1017.29 1018.12 1018.82 1019.56 1020.09 1020.63 1021.09 1021.71 1022.33 1022.67 1022.79 1022.78 1022.96 1023.03 1023.15 1023.11 1023.06 1022.94 1022.69 1022.51 1022.15 1021.74 1021.38 1021.07
1024.88 1025.09 1025.10 1025.28 1025.18 1024.79 1024.83 1025.32 1025.99 1026.57 1026.84 1026.77 1025.65 1024.23 1017.61 1014.91 1014.52 1014.86 1015.71 1016.69 1017.41 1018.39 1019.31 1020.14 1020.64 1021.30 1021.93 1022.06 1022.24 1022.49 1022.73 1023.12 1023.24 1023.34 1023.47 1023.45 1023.19 1022.94 1022.61 1022.38 1022.23 1021.90 1021.40 1021.08
1026.79 1025.65 1025.57 1025.66 1025.80 1025.70 1025.85 1026.26 1027.21 1028.49 1029.28 1027.90 1025.89 1023.00 1016.66 1014.89 1014.61 1014.96 1015.65 1016.22 1017.15 1018.36 1019.22 1019.83 1020.74 1021.26 1021.62 1022.19 1022.61 1022.62 1022.96 1022.97 1023.21 1023.46 1023.33 1023.20 1023.19 1023.02 1022.76 1022.68 1022.37 1021.83 1021.50 1021.26
1027.03 1026.03 1025.72 1026.15 1026.47 1026.87 1026.66 1027.05 1027.75 1028.79 1030.72 1029.65 1025.16 1021.37 1017.24 1015.11 1015.01 1015.33 1016.10 1017.04 1017.75 1018.38 1019.21 1020.06 1020.70 1021.35 1021.88 1022.20 1022.67 1022.70 1022.91 1023.09 1023.26 1023.45 1023.49 1023.31 1023.06 1022.90 1022.74 1022.44 1022.03 1021.70 1021.51 1021.09
1027.47 1027.28 1026.14 1026.48 1026.74 1027.07 1027.09 1027.71 1027.94 1028.84 1029.98 1029.35 1025.55 1022.47 1018.67 1016.53 1016.11 1016.22 1016.60 1017.18 1017.70 1018.24 1018.98 1019.77 1020.69 1021.40 1021.85 1022.23 1022.52 1022.65 1022.99 1023.30 1023.48 1023.42 1023.55 1023.44 1023.24 1023.04 1022.75 1022.52 1022.11 1021.65 1021.25 1021.03
1027.55 1028.03 1026.77 1026.49 1026.49 1026.61 1027.37 1027.79 1028.55 1029.04 1029.26 1029.15 1026.66 1021.42 1017.20 1016.77 1016.91 1017.14 1017.04 1017.14 1017.37 1017.77 1018.51 1019.62 1020.42 1021.04 1021.51 1022.11 1022.58 1022.98 1023.42 1023.24 1023.23 1023.56 1023.55 1023.33 1023.14 1022.95 1022.73 1022.28 1021.85 1021.48 1021.20 1020.88
1027.74 1028.11 1027.81 1026.28 1026.29 1026.25 1026.45 1026.95 1027.69 1028.88 1029.09 1028.71 1027.41 1020.83 1015.95 1015.97 1016.54 1017.09 1016.97 1016.87 1016.99 1017.68 1018.41 1019.23 1019.94 1020.76 1021.52 1022.02 1022.66 1023.07 1023.11 1023.36 1023.65 1023.70 1023.58 1023.42 1023.22 1023.01 1022.67 1022.34 1022.02 1021.63 1021.21 1020.92
1027.91 1028.62 1028.29 1026.54 1026.94 1026.59 1026.62 1026.83 1027.33 1028.04 1028.05 1027.13 1025.97 1018.78 1015.35 1015.83 1016.14 1016.16 1016.48 1016.67 1016.83 1017.66 1018.77 1019.58 1020.08 1020.54 1021.59 1022.39 1022.90 1023.05 1023.31 1023.39 1023.44 1023.80 1023.77 1023.61 1023.29 1022.90 1022.57 1022.20 1021.89 1021.53 1021.09 1020.67
1028.23 1028.76 1028.82 1028.45 1026.92 1026.32 1026.76 1026.68 1026.83 1027.25 1027.44 1025.38 1022.10 1016.97 1014.54 1015.01 1015.65 1015.44 1015.94 1015.88 1016.22 1016.94 1017.94 1019.07 1020.11 1020.75 1021.45 1022.17 1022.78 1023.14 1023.54 1023.70 1023.94 1023.88 1024.08 1023.85 1023.54 1023.26 1022.98 1022.47 1021.99 1021.47 1021.06 1020.50
1029.18 1029.94 1029.63 1028.51 1026.81 1026.42 1025.66 1025.70 1026.09 1026.35 1024.87 1024.42 1018.22 1018.46 1014.62 1014.32 1014.57 1014.43 1014.95 1015.17 1015.94 1016.82 1017.80 1018.81 1019.81 1020.76 1021.82 1022.58 1022.84 1023.46 1023.86 1024.12 1024.44 1024.80 1024.58 1024.31 1023.96 1023.43 1022.97 1022.57 1022.21 1021.67 1021.00 1020.49
1029.90 1030.41 1030.64 1028.75 1026.97 1026.29 1024.96 1023.55 1023.78 1024.09 1023.47 1022.25 1019.44 1016.63 1014.65 1013.65 1013.96 1014.36 1014.35 1014.75 1015.46 1016.28 1017.25 1018.48 1019.61 1020.68 1021.55 1022.18 1023.11 1023.75 1024.20 1024.69 1025.10 1025.01 1024.83 1024.24 1023.83 1023.51 1023.18 1022.80 1022.19 1021.65 1021.00 1020.49
1030.81 1031.32 1031.42 1029.54 1027.36 1025.25 1021.98 1019.52 1020.81 1021.26 1020.66 1019.35 1017.99 1014.12 1012.98 1013.29 1013.54 1013.64 1013.64 1014.33 1014.94 1015.65 1016.85 1018.31 1019.52 1020.77 1021.68 1022.53 1023.35 1023.98 1024.69 1025.14 1025.32 1025.16 1024.67 1024.38 1024.28 1023.97 1023.35 1022.83 1022.23 1021.62 1021.05 1020.45
1030.72 1031.54 1031.48 1030.31 1027.92 1024.59 1018.58 1017.50 1017.56 1018.14 1017.26 1016.82 1015.32 1013.82 1013.02 1012.83 1013.24 1013.43 1013.21 1014.00 1014.79 1015.80 1017.26 1018.43 1019.68 1020.68 1021.76 1022.76 1023.36 1024.34 1025.14 1025.31 1025.35 1025.00 1024.96 1024.58 1024.20 1023.83 1023.42 1022.81 1022.24 1021.67 1021.04 1020.32
1030.08 1030.45 1030.99 1030.64 1028.05 1022.44 1017.60 1016.45 1016.35 1016.56 1014.66 1013.26 1013.32 1012.47 1012.20 1012.62 1013.21 1012.83 1012.92 1013.99 1015.06 1016.33 1017.60 1018.81 1019.90 1021.26 1022.22 1022.70 1023.56 1024.06 1024.48 1024.86 1024.69 1024.82 1024.67 1024.32 1024.07 1023.57 1023.17 1022.75 1022.07 1021.49 1020.84 1020.19
1029.75 1029.96 1029.49 1029.74 1027.30 1022.35 1015.94 1015.31 1015.29 1015.41 1013.15 1010.50 1011.04 1011.34 1011.86 1012.79 1013.18 1012.70 1013.73 1014.95 1016.03 1016.95 1017.95 1019.05 1020.19 1021.22 1022.01 1022.60 1023.17 1023.91 1024.53 1024.62 1024.47 1024.24 1024.44 1024.23 1023.90 1023.58 1023.11 1022.71 1021.88 1021.20 1020.68 1019.91
1028.66 1028.74 1028.11 1026.56 1024.35 1019.61 1014.51 1014.43 1015.00 1014.32 1010.29 1009.50 1010.11 1010.51 1011.46 1012.51 1012.59 1012.91 1014.14 1015.51 1016.57 1017.47 1018.55 1019.50 1020.34 1020.86 1021.51 1022.36 1023.02 1023.82 1024.17 1024.08 1024.25 1024.02 1023.91 1023.87 1023.67 1023.18 1022.66 1022.19 1021.57 1020.94 1020.26 1019.56
1023.58 1024.62 1024.75 1023.79 1021.53 1016.65 1012.80 1013.85 1013.21 1009.43 1008.85 1009.27 1009.86 1010.21 1010.96 1011.43 1012.07 1013.23 1014.45 1015.74 1016.86 1017.84 1018.76 1019.56 1020.29 1021.20 1022.05 1022.58 1023.08 1023.38 1023.82 1024.38 1024.31 1024.25 1023.77 1023.44 1023.34 1022.82 1022.12 1021.85 1021.15 1020.54 1019.83 1019.19
1020.60 1018.78 1018.58 1018.23 1013.99 1010.95 1010.67 1009.30 1008.59 1008.53 1008.83 1008.86 1009.46 1009.81 1010.47 1011.06 1011.67 1013.02 1014.47 1015.86 1017.04 1017.87 1018.53 1019.31 1020.26 1021.18 1021.92 1022.71 1023.29 1023.69 1024.10 1024.13 1024.34 1024.25 1023.87 1023.31 1023.14 1022.64 1022.03 1021.58 1020.87 1020.18 1019.50 1018.87
1016.67 1016.08 1015.83 1014.54 1008.97 1008.90 1008.64 1007.94 1007.81 1007.90 1008.12 1007.96 1008.60 1009.24 1009.85 1010.30 1010.99 1012.70 1014.09 1015.58 1016.78 1017.68 1018.58 1019.46 1020.35 1021.27 1022.02 1022.57 1022.93 1023.45 1023.81 1024.27 1024.58 1024.45 1023.91 1023.37 1022.97 1022.67 1021.98 1021.29 1020.72 1020.09 1019.19 1018.41
1013.18 1013.69 1012.57 1010.60 1007.75 1006.74 1007.42 1006.54 1006.77 1006.70 1007.10 1007.75 1008.16 1008.58 1008.90 1009.60 1010.82 1012.19 1013.77 1014.97 1016.14 1017.12 1018.08 1019.14 1019.88 1020.89 1022.12 1022.94 1023.17 1023.42 1023.89 1024.24 1024.34 1024.41 1024.02 1023.35 1022.86 1022.41 1021.90 1021.33 1020.64 1019.66 1018.85 1017.98
1011.14 1010.28 1010.34 1007.89 1005.35 1006.02 1004.43 1005.41 1005.97 1006.92 1007.45 1007.47 1007.91 1008.32 1008.59 1009.37 1010.42 1011.66 1012.82 1014.22 1015.68 1017.00 1018.02 1019.12 1020.02 1020.90 1021.63 1022.41 1023.03 1023.62 1024.05 1024.28 1024.29 1024.35 1024.11 1023.48 1023.01 1022.47 1021.74 1020.98 1020.27 1019.55 1018.42 1017.59
Wind_Speed
7 11 4 2 2 1 2 2 5 6 2 7 3 15 22 10 6 6 5 7 7 7 5 3 6 7 7 5 6 5 5 3 3 3 2 2 2 2 3 3 6 5 6 7
8 4 2 2 1 1 2 2 6 8 2 1 7 23 9 4 3 2 3 4 6 2 3 3 5 5 5 5 4 4 5 6 4 3 2 1 2 2 2 3 5 6 7 7
6 1 3 1 3 7 2 1 3 6 10 2 9 10 5 2 2 2 1 2 2 4 1 3 6 6 5 4 4 6 6 6 6 6 3 3 2 2 2 4 5 6 6 7
5 3 1 3 3 1 4 3 2 6 6 4 6 7 8 5 7 4 4 3 2 2 2 2 4 4 4 4 6 7 6 6 6 5 4 4 2 3 3 5 4 6 5 7
1 4 5 1 2 2 6 1 2 1 1 4 7 5 12 4 8 7 8 7 4 1 3 5 5 6 6 6 6 6 7 7 5 5 4 3 4 3 3 3 7 6 7 7
3 1 1 2 3 3 3 0 1 3 3 5 4 4 10 4 5 4 4 5 5 4 4 5 5 6 6 6 6 6 6 5 4 4 5 5 4 6 6 6 7 6 6 6
6 2 2 2 3 2 4 6 6 8 7 6 1 2 15 6 5 5 6 6 7 5 4 3 5 5 5 5 5 4 4 4 5 5 5 7 6 6 7 9 6 10 7 6
4 8 1 3 2 1 3 3 6 5 3 7 2 8 9 5 4 5 4 5 6 7 5 5 5 5 5 5 4 4 4 3 4 4 5 5 6 5 5 6 7 6 7 7
3 6 1 2 3 3 3 5 1 8 2 4 4 10 14 4 7 6 7 5 8 7 6 6 6 5 5 5 3 4 3 3 3 4 5 6 7 8 6 8 7 6 8 9
1 5 1 1 2 3 3 3 4 4 3 7 7 8 9 9 8 7 7 9 9 8 8 6 5 6 4 4 3 3 2 3 3 5 5 7 8 7 7 7 9 9 9 10
4 4 5 2 3 6 3 3 4 3 4 5 3 11 9 10 6 8 8 8 8 8 8 6 6 6 6 4 2 2 2 3 4 6 7 7 7 8 8 8 9 10 11 11
0 3 4 8 3 2 1 5 4 6 7 3 3 16 6 10 6 4 10 9 8 5 4 6 8 8 6 4 2 1 1 3 5 5 7 8 8 8 8 9 11 11 11 11
3 2 5 9 2 3 2 4 4 3 3 7 4 12 1 5 7 7 11 9 7 4 4 4 6 6 5 3 1 1 3 4 4 5 6 8 8 8 9 10 11 11 11 11
1 2 8 8 10 2 3 5 5 5 3 5 16 26 29 23 15 12 7 8 7 6 7 6 6 6 4 4 1 1 3 3 5 5 6 8 8 9 10 11 11 11 11 11
4 4 2 8 14 5 12 11 9 12 11 9 25 12 30 26 21 19 10 6 3 3 5 7 7 6 4 3 2 2 1 3 4 5 5 7 9 9 9 10 11 11 10 10
1 3 1 7 5 6 10 16 14 17 16 14 27 33 26 28 15 8 9 7 5 5 6 8 7 6 6 4 3 0 1 2 3 4 5 6 7 8 9 10 11 11 11 10
3 4 4 10 7 12 11 8 10 6 7 9 8 18 2 14 7 5 7 6 8 6 7 8 8 7 5 4 4 2 1 2 3 3 5 6 7 8 9 9 9 10 11 10
6 5 2 6 7 3 9 5 8 13 15 16 15 19 20 14 4 9 9 7 5 5 7 8 7 6 5 4 2 2 2 2 4 4 5 6 6 7 8 9 9 9 9 10
2 4 1 1 3 12 11 4 6 7 12 19 15 19 14 4 4 11 2 2 3 5 7 7 6 5 5 5 3 3 1 2 3 5 5 6 5 7 7 9 9 9 9 10
2 2 1 2 4 8 9 4 3 4 10 8 12 11 6 3 13 10 3 4 7 9 9 9 8 8 6 4 3 2 0 2 4 4 5 5 6 6 7 7 9 7 8 9
4 2 7 8 7 15 15 7 6 2 17 4 6 7 7 5 7 1 7 6 8 9 10 9 8 7 5 4 2 2 2 3 5 7 7 6 6 7 6 6 6 6 8 9
12 11 7 4 6 17 11 5 10 12 2 3 4 5 7 8 4 5 8 10 11 12 11 9 8 6 4 3 3 2 3 4 4 6 7 6 7 7 7 8 8 8 8 9
5 12 9 15 15 6 13 14 11 5 4 10 8 9 9 7 7 10 9 12 11 12 11 8 8 7 5 3 2 3 2 3 4 5 7 6 6 8 9 8 8 8 7 7
7 6 6 3 23 28 23 22 19 17 15 14 6 8 8 10 7 9 12 12 11 11 10 7 8 7 6 4 4 3 1 2 3 5 6 7 6 7 7 7 5 6 7 8
9 11 10 21 30 32 22 26 21 17 5 3 4 8 12 7 6 11 11 13 12 11 9 9 9 7 6 5 4 3 2 1 3 4 5 5 5 6 6 6 7 7 6 9
8 17 11 18 30 22 25 9 5 6 7 9 8 5 8 8 10 10 12 13 13 12 10 8 7 7 7 6 4 3 2 1 1 4 4 4 5 6 6 7 7 11 13 18
Wind_Direction
12 62 56 8 10 246 278 270 273 265 2 323 254 286 291 292 231 256 313 341 307 272 291 203 159 129 116 125 152 155 143 88 56 37 12 9 348 331 350 16 5 355 340 337
24 69 311 279 324 283 191 291 296 282 264 325 327 292 278 271 246 244 318 341 347 11 28 75 112 120 154 152 140 110 95 70 56 62 28 20 308 293 325 10 346 349 335 346
103 90 312 308 31 18 330 277 323 257 318 248 315 297 335 255 264 219 93 339 345 334 288 140 157 162 137 101 113 113 97 86 60 48 25 357 332 340 343 340 326 335 339 340
86 308 27 33 54 108 299 154 256 283 11 280 17 280 310 322 300 246 234 247 277 2 63 125 145 125 121 101 92 89 89 81 69 48 43 26 354 325 323 322 308 315 332 328
294 12 19 22 265 172 259 292 248 258 104 7 356 65 269 357 300 268 233 226 216 86 75 76 83 105 88 98 104 92 82 72 61 55 37 17 349 320 297 299 315 330 329 328
67 44 44 260 288 229 307 219 96 68 101 26 271 88 282 247 224 293 268 241 220 176 123 100 89 95 94 79 73 72 75 75 55 46 26 3 346 330 332 335 329 328 321 321
352 3 313 29 326 214 25 39 343 357 7 232 269 12 246 266 258 242 273 252 226 196 185 154 133 114 99 95 88 101 74 66 39 26 9 355 347 336 333 332 326 323 318 318
83 323 29 11 42 275 20 113 144 245 273 280 32 236 254 224 258 255 254 254 191 200 194 192 169 148 136 107 85 77 46 47 31 10 353 340 343 337 330 324 318 306 310 315
37 276 121 35 25 52 342 40 135 98 72 25 267 289 293 280 291 273 263 247 240 223 201 190 168 158 140 129 106 70 48 34 11 350 346 342 340 331 316 313 306 310 311 311
152 325 247 31 104 36 101 164 32 12 340 295 296 277 243 301 296 321 308 269 256 235 198 184 160 158 142 120 121 96 46 17 341 354 350 338 322 317 314 315 317 313 310 312
131 105 295 45 189 174 30 15 35 126 139 210 298 268 216 241 238 273 288 285 265 238 203 172 165 156 147 135 118 64 21 337 353 356 335 326 320 318 318 316 315 315 314 312
27 133 278 240 97 76 126 189 167 122 273 224 158 262 214 233 246 206 280 274 280 253 160 156 163 162 156 146 90 43 320 350 9 338 328 323 319 322 322 322 320 320 315 312
170 322 342 343 53 15 185 203 147 126 79 214 175 261 299 249 287 242 257 287 273 174 176 155 154 156 152 140 109 323 343 7 358 343 328 323 322 327 326 322 318 318 312 308
108 192 172 205 229 152 211 206 208 152 155 206 235 282 282 287 298 298 304 273 275 209 175 180 165 162 170 147 148 303 6 18 0 337 333 323 331 334 327 318 318 317 314 309
130 227 212 259 263 250 264 240 217 202 217 216 273 258 280 291 298 294 304 279 235 224 196 184 173 170 151 150 199 32 35 25 350 345 322 327 330 332 321 322 323 317 314 315
59 276 81 282 287 261 268 246 231 234 252 258 263 279 263 266 284 277 271 283 256 229 196 175 165 157 161 174 143 185 22 1 4 313 317 310 331 329 324 322 321 315 316 320
138 121 46 270 336 319 291 234 169 212 210 172 219 257 329 295 272 262 270 228 245 229 169 166 158 152 164 145 146 184 307 353 320 314 315 329 333 325 318 315 316 318 321 319
136 99 98 270 356 323 245 215 184 197 254 208 267 274 275 279 247 272 249 236 230 160 147 140 140 144 129 124 152 98 47 329 326 321 332 323 318 312 311 319 316 315 317 314
36 130 274 265 229 298 274 194 153 181 269 245 229 255 268 301 306 274 135 131 123 127 130 131 134 119 121 150 156 119 6 307 340 330 308 308 302 312 316 315 313 313 313 315
85 38 173 104 240 275 216 181 149 149 279 233 194 231 251 83 305 322 141 120 117 123 131 138 134 128 140 144 139 172 29 355 349 330 310 301 300 293 304 297 307 309 306 304
140 146 214 236 251 273 263 181 145 87 288 155 188 212 164 218 239 190 131 124 135 137 141 136 133 147 148 129 130 82 23 24 333 329 325 318 311 308 285 290 300 298 300 300
169 166 201 197 225 276 153 92 186 259 226 230 212 231 234 236 210 173 147 148 148 147 155 150 143 146 132 124 134 108 43 358 336 328 316 323 318 319 321 317 307 308 306 307
210 200 195 197 220 238 197 241 259 251 259 275 271 276 221 234 219 166 167 159 161 161 166 155 152 143 139 139 145 106 32 350 340 332 318 320 319 322 323 318 313 312 315 306
234 202 229 283 247 258 260 266 254 260 249 264 231 234 199 229 176 167 157 160 163 172 167 151 148 158 164 174 140 132 154 17 349 320 314 319 327 321 316 314 305 305 313 306
191 147 214 250 268 277 269 259 271 270 255 223 218 214 223 205 179 163 165 167 173 169 159 163 170 167 162 167 164 155 107 67 344 313 303 318 323 318 315 302 307 311 300 298
180 221 219 249 258 259 281 291 208 207 231 233 226 233 226 195 165 163 166 169 166 170 162 165 164 152 165 177 165 152 178 153 317 315 321 325 322 320 320 321 316 318 328 329